Wind_Speed
29 30 31 31 31 30 30 28 25 24 23 22 22 21 21 21 21 19 19 18 17 16 17 17 17 17 17 17 16 17 17 18 20 22 24 25 24 24 23 22 22 22 22 23 24 25 26 26 26 28 31 32 34 35 36 37 37 37 38 38 39 39 39
31 32 34 35 35 34 33 31 28 27 27 26 25 26 26 26 25 23 23 24 23 21 19 19 18 18 18 19 19 19 19 19 21 23 25 26 25 25 24 23 23 23 24 25 26 26 27 27 28 30 31 33 34 36 37 38 39 39 40 40 40 41 41
34 34 36 37 37 38 36 34 32 31 31 30 29 29 29 29 28 27 26 28 28 26 24 22 21 20 20 21 22 22 21 21 22 24 26 27 26 27 26 25 25 25 26 27 28 28 28 29 30 31 32 34 35 36 37 39 40 41 41 42 42 42 42
38 38 38 38 38 38 37 36 35 34 33 32 31 31 31 32 30 29 28 30 31 30 28 26 24 22 22 23 24 24 24 23 23 25 27 27 27 27 27 27 27 28 29 29 30 30 31 31 32 33 33 35 36 37 38 39 41 42 42 43 43 43 43
41 40 39 38 39 38 37 37 36 35 33 33 33 32 32 32 31 29 28 29 31 31 29 28 27 26 25 25 26 27 26 25 25 26 28 28 28 28 28 28 29 30 32 32 32 33 34 34 34 34 35 36 37 38 40 40 41 43 44 44 45 45 45
43 43 40 39 40 39 38 37 36 35 34 33 33 32 32 32 32 30 29 29 29 30 29 29 29 29 28 28 28 29 29 28 27 28 28 28 28 29 29 30 31 33 34 34 35 36 36 36 36 36 36 37 38 39 41 42 42 43 44 46 46 47 47
45 44 43 42 41 40 40 39 38 36 35 34 33 33 34 34 33 31 31 31 30 30 30 30 31 32 31 31 31 31 31 30 30 30 28 28 28 29 30 32 33 34 36 36 37 38 39 38 38 38 38 38 38 40 41 42 43 44 45 46 47 48 49
46 46 44 44 44 44 43 41 40 39 37 36 36 36 36 35 34 34 34 33 32 31 31 31 32 33 34 33 33 33 33 33 33 32 29 28 29 30 31 33 34 36 37 38 40 41 41 41 40 40 40 40 40 41 42 43 44 44 45 47 48 49 51
49 48 47 46 46 46 46 44 42 41 40 40 40 39 39 38 36 36 35 34 34 34 33 33 32 33 34 35 35 35 35 35 35 34 31 30 30 31 33 34 36 37 38 39 41 43 43 42 42 42 42 42 42 43 44 44 44 45 46 47 49 50 51
53 52 51 51 50 49 48 46 44 44 43 44 43 42 42 40 38 37 36 36 36 36 36 35 34 34 35 35 36 36 37 37 37 36 34 33 33 33 35 36 38 39 40 41 43 45 45 44 44 45 45 45 45 45 46 47 46 46 47 48 49 51 52
56 56 56 55 53 52 51 49 47 47 47 47 46 45 44 42 40 39 39 39 39 39 38 37 37 36 36 36 36 37 37 37 38 38 37 37 37 37 38 39 40 41 42 43 45 46 46 45 46 47 46 47 47 48 49 50 49 49 49 49 50 51 53
58 58 58 58 56 55 54 53 51 50 50 49 48 47 46 44 43 42 42 42 41 41 40 39 39 39 39 39 39 39 38 39 40 40 41 41 41 41 40 41 42 43 44 45 47 47 47 48 49 48 48 50 51 51 51 52 53 52 51 51 51 52 54
60 60 60 59 59 58 57 57 56 54 53 52 52 50 48 46 46 45 45 44 44 43 42 41 40 41 41 42 42 42 42 42 43 43 43 43 43 43 43 43 44 44 45 47 48 49 49 50 51 51 51 53 53 53 54 55 56 56 56 55 54 54 55
63 62 60 60 60 60 59 59 59 58 56 55 55 54 50 48 49 48 48 47 46 44 43 42 42 43 44 44 44 45 45 44 45 45 46 45 45 45 45 45 45 45 46 48 49 50 51 52 52 53 54 55 55 55 56 57 58 59 60 59 58 57 57
67 64 62 60 61 61 61 61 61 60 59 58 57 56 54 51 51 51 51 50 49 47 45 45 45 47 47 47 46 47 47 47 47 48 48 47 47 47 47 47 47 47 48 49 51 52 52 53 54 55 56 57 57 57 58 59 60 61 61 62 61 60 61
71 68 65 63 62 62 62 62 62 62 61 60 59 58 57 56 54 53 54 53 51 49 47 47 48 49 50 50 48 49 49 49 50 50 50 49 50 49 49 49 49 49 49 51 53 54 54 55 56 58 59 59 60 60 60 60 61 61 62 63 64 64 64
74 72 69 67 66 65 65 64 64 63 62 61 61 59 59 59 57 56 55 55 54 52 50 49 50 51 52 52 51 50 52 52 52 52 52 52 52 51 51 50 50 51 51 52 54 55 56 57 59 60 61 62 63 63 63 63 63 63 64 65 66 67 67
76 74 73 72 70 69 69 68 66 64 63 63 63 62 61 60 59 58 58 57 57 55 53 51 52 53 54 55 54 53 54 55 54 54 54 54 53 52 52 52 53 53 53 53 54 56 57 59 61 62 63 64 65 66 66 66 66 65 66 67 68 69 70
76 76 76 76 74 74 73 72 69 67 66 66 66 65 62 61 60 61 61 61 60 58 55 54 54 55 56 57 56 55 56 57 56 56 56 56 55 54 53 54 55 55 55 55 56 57 59 61 62 63 65 65 67 68 69 69 69 69 69 70 71 71 72
72 76 79 79 78 77 77 76 74 71 70 69 68 66 64 63 63 63 63 63 61 59 58 57 57 57 58 59 59 58 58 58 58 58 58 57 56 55 55 56 57 57 57 58 59 60 61 62 64 65 66 66 68 69 71 72 72 72 72 72 73 73 74
64 70 75 78 80 80 79 78 77 75 74 73 71 69 68 66 65 65 64 63 62 62 61 59 57 57 59 60 61 60 60 60 60 59 59 58 57 57 57 58 58 59 59 60 61 62 63 64 65 66 67 68 69 70 72 73 74 74 74 74 74 74 75
58 62 67 73 78 80 80 80 79 78 78 78 77 74 72 70 68 67 66 65 64 64 63 60 58 58 59 60 62 62 62 61 61 60 59 59 58 58 59 60 61 61 62 63 64 64 65 66 67 68 69 69 70 71 73 73 73 73 74 75 75 76 78
56 58 60 66 72 77 80 80 80 81 81 81 81 78 75 74 73 72 70 68 66 66 65 62 59 59 60 62 63 64 63 62 61 60 60 59 59 61 62 63 63 64 64 65 66 66 66 67 69 70 71 71 71 72 73 73 72 72 74 76 77 78 80
57 58 58 61 66 71 76 78 80 82 84 85 83 81 79 79 78 76 74 72 70 69 68 65 61 60 61 62 62 63 63 63 63 62 61 62 63 64 65 66 66 67 67 67 67 68 68 69 70 72 73 72 72 73 73 73 72 73 75 77 79 80 81
56 58 58 59 60 64 69 73 76 79 83 85 84 83 82 82 81 79 78 76 74 73 70 66 64 62 61 61 62 63 64 65 65 64 65 66 67 68 69 70 69 69 69 69 70 70 71 71 72 74 74 74 73 74 74 74 74 76 78 80 81 82 81
56 58 59 59 58 58 61 67 71 75 78 81 83 84 85 85 84 83 82 81 79 76 72 68 66 65 64 64 66 66 66 66 67 68 69 70 72 73 74 73 72 72 72 71 71 72 73 74 75 76 76 76 75 75 75 75 76 78 79 81 81 81 80
56 58 60 60 59 58 59 62 66 69 73 76 79 83 86 87 86 86 86 85 81 76 72 70 69 68 68 69 69 68 67 68 69 72 74 76 77 77 76 76 75 75 74 73 74 75 76 77 77 78 78 78 77 77 76 77 78 78 79 80 80 80 80
56 58 61 62 61 60 59 60 61 63 66 70 75 79 83 86 87 87 88 88 83 75 70 69 70 72 72 72 70 70 71 72 74 75 76 78 78 78 78 79 78 77 76 76 76 77 79 80 80 80 81 81 80 78 78 78 78 78 78 79 78 76 76
57 57 59 61 62 62 60 59 59 59 61 65 69 74 78 82 84 86 87 87 85 80 75 73 74 75 75 74 73 74 75 77 78 78 78 77 78 81 82 82 80 78 78 79 81 82 83 83 83 82 83 83 80 78 77 78 77 76 76 76 73 70 72
57 57 58 59 61 62 61 60 59 58 59 61 63 66 69 73 77 80 83 85 86 86 84 81 79 79 78 77 76 78 79 79 79 79 79 79 81 84 86 85 82 80 80 82 84 85 86 86 85 84 84 82 78 76 76 75 74 73 72 72 71 70 73
58 59 59 60 61 61 61 61 60 58 57 57 58 59 61 64 68 71 75 80 84 86 85 83 82 81 80 79 80 80 79 79 79 80 81 82 84 85 86 85 81 81 83 85 88 91 91 88 84 81 78 74 71 70 70 69 69 69 70 70 70 71 74
61 61 60 60 62 62 61 60 60 58 57 55 54 56 58 59 61 64 67 71 77 81 82 82 83 83 82 81 80 79 78 78 78 80 81 83 84 85 86 83 79 79 83 86 87 85 79 72 68 67 65 63 63 64 65 66 66 66 64 64 66 70 73
62 62 62 61 60 61 60 59 58 57 55 53 53 54 56 56 57 60 62 65 70 74 76 77 79 81 82 81 79 78 79 79 78 79 80 82 84 85 84 78 73 73 75 73 69 63 58 55 56 58 58 58 60 62 64 65 64 63 63 63 67 72 75
61 61 62 60 59 59 59 57 55 54 53 53 54 54 55 55 55 56 57 60 64 68 70 70 72 75 77 77 76 74 74 74 74 74 78 80 81 81 79 72 67 66 63 58 55 55 55 55 56 57 58 59 61 64 64 63 63 65 67 69 71 74 74
60 60 60 59 58 57 56 54 53 52 51 52 53 52 52 53 54 54 54 56 60 64 67 66 64 65 67 68 66 64 64 66 67 68 73 77 77 77 76 68 59 57 58 56 55 55 54 55 58 61 63 64 66 65 63 62 64 67 70 71 73 74 73
59 59 58 57 56 55 54 53 51 50 49 48 48 47 47 48 49 50 52 54 57 61 65 63 59 57 56 58 60 61 61 61 60 61 67 72 72 71 72 66 57 55 57 55 52 51 53 58 64 67 69 71 69 65 61 61 65 68 71 73 74 73 73
57 57 56 54 53 53 53 52 49 46 44 41 38 35 35 35 36 39 44 50 54 57 59 59 59 56 50 50 56 61 61 58 56 56 63 71 70 66 67 68 65 62 61 59 58 59 64 67 69 73 75 72 66 61 60 63 66 69 72 74 73 72 73
56 56 54 51 51 51 51 49 45 40 33 27 22 19 19 20 23 28 34 40 47 50 50 51 54 53 50 49 52 56 60 64 64 63 66 71 68 62 63 66 68 69 70 71 72 75 75 74 75 78 76 67 60 61 65 67 69 72 73 73 73 74 75
Wind_Direction
221 221 221 222 224 225 226 228 232 235 236 238 243 247 250 252 254 254 254 256 260 262 260 256 255 259 262 263 266 270 277 285 292 296 297 301 307 310 312 316 318 318 316 314 315 317 319 320 321 322 324 327 330 332 333 335 336 337 336 337 337 338 339
221 222 224 224 226 228 229 232 235 237 239 241 244 248 252 255 257 258 259 261 262 264 264 261 257 258 263 266 268 272 276 282 288 291 293 298 305 309 311 314 316 316 314 313 314 316 318 320 320 321 323 325 329 331 332 333 334 335 335 336 337 337 337
221 223 226 227 228 230 231 233 236 238 240 243 246 249 254 257 258 259 260 261 262 262 263 264 261 258 261 265 268 272 275 279 284 287 290 296 303 307 310 311 312 313 312 312 314 315 316 317 318 320 322 325 327 328 330 331 332 333 334 335 335 335 336
220 222 227 228 230 232 232 233 236 238 240 243 247 249 252 255 256 256 256 257 259 260 260 263 264 261 260 263 267 271 274 277 280 283 287 293 301 305 308 310 310 310 310 310 312 314 314 315 317 319 321 323 325 327 328 329 330 331 333 334 334 334 334
222 221 225 229 230 232 233 234 236 238 240 243 246 248 250 252 254 254 254 255 257 257 257 259 263 264 263 263 265 269 272 275 277 280 284 291 298 303 306 308 308 308 308 309 311 312 312 314 316 318 320 322 324 325 326 328 329 331 331 332 333 333 332
226 222 223 228 230 231 233 236 238 239 241 243 245 246 248 249 252 254 254 254 254 254 254 256 260 263 264 264 266 269 271 273 275 277 282 289 295 301 304 306 307 307 307 308 310 310 310 312 315 317 319 321 323 324 325 326 328 330 330 330 331 331 331
232 227 224 226 229 231 233 235 238 239 239 242 244 244 245 247 250 253 253 252 252 252 252 254 258 262 263 264 266 269 271 272 273 276 280 287 293 298 302 304 305 305 306 307 308 308 308 310 313 315 317 319 321 322 323 324 327 328 329 329 329 330 330
235 234 230 229 230 232 232 234 237 238 238 240 241 243 244 246 248 250 251 253 253 253 253 255 258 261 262 263 264 267 270 272 273 276 280 285 291 296 298 300 302 303 305 307 306 306 307 309 312 314 315 317 320 320 321 323 325 326 327 328 328 329 328
233 235 235 234 234 234 233 234 235 237 238 238 239 241 243 245 246 247 250 252 253 254 255 256 259 261 261 261 261 263 267 272 275 276 279 285 290 294 296 297 299 301 304 305 304 304 306 309 311 313 315 316 318 319 320 321 323 324 326 327 327 327 327
231 234 235 236 235 235 235 235 235 236 237 238 238 239 242 244 245 246 248 250 252 254 256 257 259 261 262 262 262 262 265 270 274 277 280 284 288 291 294 295 296 299 302 302 303 303 305 308 311 312 314 316 316 317 319 320 321 323 324 325 326 326 326
231 232 234 236 236 236 235 235 235 236 237 237 238 240 242 243 244 245 247 249 251 253 255 257 259 261 263 265 265 264 265 268 273 277 280 283 286 289 291 293 295 297 299 300 301 302 304 307 310 311 313 314 315 315 317 319 320 321 322 323 324 325 324
233 233 234 235 236 237 237 236 235 236 238 239 239 239 241 243 244 245 247 248 250 253 255 257 260 262 264 266 267 268 268 269 273 278 281 283 286 288 289 291 293 295 297 298 300 301 304 307 309 310 311 313 313 314 315 317 318 319 321 322 323 323 323
232 234 235 236 237 238 239 238 237 236 238 239 240 239 240 242 245 246 248 250 251 253 256 258 260 262 264 265 267 269 269 271 274 277 280 283 285 286 287 289 291 293 295 297 299 301 303 306 309 310 310 312 313 314 315 316 316 317 319 320 321 322 322
233 233 235 237 238 239 241 241 240 239 239 240 242 241 241 242 245 247 249 250 251 253 256 258 260 261 262 264 267 268 270 272 274 277 279 281 283 284 286 288 290 292 295 297 298 301 303 306 308 309 310 311 312 314 315 315 315 316 317 318 319 320 320
236 234 235 237 239 240 241 242 243 243 242 243 244 244 243 243 246 248 249 250 252 253 256 258 260 261 263 264 266 268 270 272 274 276 278 280 281 282 284 287 289 292 295 296 298 300 303 305 307 308 309 310 311 313 314 314 314 314 315 316 317 318 318
239 237 235 235 237 240 242 243 244 245 245 245 246 247 247 246 246 248 250 251 252 253 255 257 259 261 263 265 266 268 270 272 273 275 277 278 280 281 284 286 289 292 294 296 298 300 302 304 306 307 308 309 310 311 312 312 312 311 312 314 315 315 316
240 240 238 236 237 239 241 243 244 245 246 247 247 247 248 249 249 249 250 252 252 253 254 256 258 260 263 264 266 268 269 271 272 274 276 277 279 281 284 287 290 292 294 296 298 300 301 303 305 306 307 308 308 309 309 310 310 309 310 312 313 314 314
239 240 241 240 239 239 240 242 243 244 245 246 247 248 248 250 251 252 253 254 254 254 254 255 257 259 261 264 265 267 268 270 272 274 275 277 279 282 285 288 290 292 294 296 297 299 300 302 303 304 305 307 307 308 308 308 308 308 309 310 312 313 314
239 239 240 240 241 241 241 241 242 243 244 245 246 248 248 249 251 252 253 255 255 255 256 256 257 259 260 263 265 266 268 270 272 274 276 278 280 283 286 288 290 292 293 295 297 298 299 301 302 303 304 305 306 306 306 306 307 307 308 309 311 312 312
242 241 240 240 240 241 242 242 242 242 243 244 246 247 248 249 250 251 252 254 256 257 257 256 258 259 261 263 266 267 268 270 272 274 276 279 281 284 287 289 291 292 293 294 296 297 298 300 301 302 302 303 304 305 305 304 305 306 307 308 309 310 311
245 244 242 241 241 240 241 242 243 244 244 244 245 246 247 248 249 250 252 254 256 257 258 258 259 261 263 265 267 268 269 270 272 274 277 280 283 285 288 290 291 291 292 293 295 296 297 298 299 300 300 301 302 303 303 303 303 304 305 306 308 309 310
245 245 245 244 242 242 241 241 242 244 245 246 245 245 246 247 248 249 251 252 254 256 257 258 260 262 264 265 267 269 270 271 272 275 278 281 284 286 288 288 289 289 290 291 293 294 295 296 297 297 298 299 300 301 302 303 302 302 303 305 306 308 309
245 244 244 244 244 243 242 241 241 242 243 244 245 246 246 247 247 248 249 250 252 254 256 257 259 261 262 264 267 269 271 272 274 277 280 283 284 285 285 286 286 286 287 289 290 291 292 293 294 295 296 297 299 300 301 301 300 300 302 304 306 307 309
250 246 244 245 245 245 244 243 242 242 242 242 244 245 245 246 247 247 248 249 250 252 253 255 257 259 261 263 265 267 269 272 276 278 280 282 282 282 283 283 283 284 285 286 288 289 290 292 293 294 295 296 297 299 299 299 298 299 301 304 306 308 309
257 252 248 246 246 246 247 246 244 243 244 244 244 244 245 246 247 248 248 248 249 250 252 254 256 257 259 260 262 265 269 273 276 278 279 279 279 280 280 280 280 282 283 285 286 288 289 291 292 293 294 295 296 297 297 297 296 298 301 304 307 308 309
262 259 255 250 246 245 246 246 245 245 245 246 246 246 246 246 247 248 249 249 249 249 251 253 255 257 258 259 262 265 268 271 274 276 276 276 276 276 276 278 279 281 282 284 286 287 288 290 290 292 292 293 294 295 295 295 296 297 301 304 307 308 309
263 263 261 256 251 247 245 245 246 246 246 246 246 246 246 247 247 248 249 250 250 250 250 252 254 256 258 260 262 265 267 269 270 272 273 274 274 274 275 277 278 280 282 284 286 286 287 289 290 290 291 292 292 293 294 295 296 299 301 304 306 307 308
261 261 262 261 258 254 250 249 248 248 247 247 247 246 246 246 246 247 249 251 252 251 249 249 252 255 256 258 261 263 265 266 267 268 270 272 272 273 275 277 278 281 284 286 287 287 288 289 289 289 290 291 292 293 293 295 297 299 302 304 306 307 308
261 259 258 259 260 259 257 255 253 251 250 249 248 248 247 247 247 247 248 250 252 252 250 250 251 253 255 257 259 261 262 263 265 267 269 270 272 274 276 279 282 284 287 288 289 289 289 288 289 289 290 291 292 293 293 295 297 300 302 304 305 306 307
263 262 259 258 258 260 260 259 257 255 253 252 252 252 251 250 249 249 249 249 250 251 252 252 252 252 254 256 258 259 260 262 265 267 269 270 272 274 278 282 285 288 290 290 290 289 289 288 288 289 289 291 292 293 294 296 298 300 302 303 304 304 305
261 262 261 259 258 259 259 260 260 258 256 255 255 254 254 253 252 250 249 249 249 250 250 251 251 252 253 254 256 258 260 263 266 268 270 271 273 276 280 283 287 291 291 290 290 289 288 288 287 288 290 292 293 293 294 297 299 300 302 303 304 303 304
256 257 258 259 259 259 260 260 261 261 260 259 258 257 256 255 254 252 250 249 248 248 248 247 248 250 251 252 254 256 259 262 264 267 269 271 274 276 279 283 288 291 291 290 290 290 288 287 288 290 292 293 293 294 296 298 299 300 301 302 301 301 303
252 253 255 256 256 257 259 261 262 263 263 262 260 259 258 257 256 254 252 250 248 248 247 245 244 245 246 248 250 252 255 258 260 262 265 268 271 274 277 282 287 289 288 287 285 284 283 286 289 291 293 295 296 297 298 298 297 298 299 299 298 300 303
249 251 252 253 254 255 257 259 261 262 263 264 263 262 261 261 259 257 254 252 250 249 247 245 243 243 243 244 246 249 253 257 259 260 262 264 268 272 276 279 281 281 278 272 266 266 272 279 285 292 296 297 298 299 299 297 297 298 300 300 301 302 302
247 249 250 251 252 253 254 256 258 260 262 264 264 263 261 260 260 259 256 252 250 247 245 244 244 244 242 242 245 249 253 257 261 263 265 267 270 271 272 272 270 268 266 261 257 259 266 275 286 294 297 298 299 299 297 295 296 297 299 300 301 301 300
247 247 249 249 250 251 252 254 255 257 259 263 264 263 261 260 260 259 257 254 250 246 244 244 246 247 246 246 248 251 253 257 264 268 269 269 269 267 265 262 259 258 258 254 252 257 266 277 287 293 296 298 299 296 293 293 294 296 297 299 299 299 299
246 246 247 247 248 249 249 250 252 255 258 260 260 258 260 262 262 262 259 256 252 248 244 243 246 249 249 250 251 252 253 257 266 273 273 270 267 263 258 255 253 253 252 249 250 261 271 278 285 290 294 297 295 292 291 292 292 293 295 296 297 297 298
246 245 245 246 245 245 245 247 250 250 248 245 243 248 260 269 273 275 271 263 256 251 245 241 242 245 246 244 245 248 251 256 263 269 271 269 264 256 250 249 249 249 251 254 259 266 271 275 280 286 291 291 288 286 288 290 290 291 293 294 294 295 296
Height
10964 10965 10966 10967 10968 10969 10971 10973 10975 10976 10977 10978 10980 10981 10982 10983 10984 10984 10985 10985 10985 10985 10986 10986 10986 10986 10986 10986 10985 10985 10985 10984 10984 10984 10984 10984 10984 10985 10985 10985 10984 10982 10981 10979 10978 10976 10975 10974 10973 10971 10970 10969 10966 10963 10961 10959 10958 10957 10956 10954 10952 10949 10947
10960 10961 10961 10963 10964 10966 10968 10970 10972 10974 10974 10976 10977 10978 10979 10980 10981 10982 10983 10983 10983 10983 10983 10984 10984 10984 10984 10983 10983 10982 10982 10982 10981 10981 10981 10981 10982 10982 10983 10983 10982 10980 10978 10977 10976 10974 10973 10972 10971 10970 10968 10967 10964 10962 10959 10957 10956 10954 10953 10951 10949 10947 10944
10956 10957 10957 10959 10960 10962 10965 10967 10969 10970 10971 10972 10974 10975 10976 10977 10978 10979 10980 10980 10980 10980 10981 10981 10982 10982 10981 10981 10980 10980 10979 10979 10978 10978 10978 10978 10980 10980 10980 10981 10980 10978 10976 10975 10974 10972 10971 10970 10969 10968 10966 10964 10962 10961 10959 10956 10953 10952 10950 10948 10946 10944 10942
10953 10954 10954 10955 10957 10958 10961 10963 10965 10966 10968 10969 10970 10972 10973 10974 10975 10976 10977 10977 10977 10977 10978 10978 10979 10979 10979 10978 10977 10977 10976 10976 10975 10975 10974 10975 10976 10977 10978 10978 10977 10975 10974 10972 10971 10970 10968 10967 10966 10965 10963 10961 10960 10958 10957 10954 10952 10949 10947 10945 10943 10941 10939
10948 10950 10951 10953 10954 10955 10957 10959 10961 10963 10964 10966 10967 10968 10969 10970 10971 10972 10973 10974 10974 10974 10975 10976 10976 10976 10976 10975 10975 10974 10973 10973 10972 10972 10971 10972 10973 10974 10975 10975 10974 10973 10971 10970 10969 10967 10966 10965 10963 10962 10961 10959 10957 10955 10953 10952 10949 10946 10944 10941 10940 10938 10936
10942 10946 10948 10949 10950 10952 10953 10954 10956 10959 10960 10962 10963 10964 10965 10966 10967 10968 10970 10971 10971 10971 10972 10972 10973 10973 10973 10973 10972 10971 10970 10970 10969 10969 10969 10969 10970 10971 10971 10972 10971 10970 10968 10967 10965 10964 10963 10962 10961 10960 10958 10956 10954 10952 10950 10948 10946 10944 10941 10938 10936 10934 10933
10937 10940 10943 10944 10946 10947 10949 10950 10952 10954 10956 10957 10959 10960 10961 10962 10963 10965 10966 10966 10967 10967 10968 10969 10969 10970 10970 10969 10969 10968 10967 10967 10966 10965 10966 10966 10967 10967 10968 10968 10968 10966 10965 10964 10962 10960 10959 10959 10958 10957 10956 10954 10952 10950 10947 10945 10943 10942 10939 10936 10934 10931 10928
10932 10934 10937 10939 10941 10942 10944 10946 10948 10949 10952 10953 10955 10956 10957 10958 10960 10961 10961 10962 10963 10964 10964 10965 10966 10966 10965 10965 10965 10965 10964 10963 10962 10962 10962 10963 10964 10964 10964 10964 10964 10963 10962 10961 10958 10956 10955 10955 10954 10953 10952 10950 10949 10947 10945 10943 10941 10939 10937 10934 10931 10928 10925
10928 10929 10932 10934 10935 10937 10939 10942 10944 10945 10948 10949 10950 10951 10952 10954 10956 10956 10957 10958 10959 10959 10960 10961 10962 10961 10960 10960 10960 10960 10960 10960 10959 10959 10959 10960 10960 10960 10960 10960 10960 10960 10959 10957 10955 10952 10951 10951 10950 10949 10947 10946 10944 10943 10941 10940 10938 10936 10934 10931 10928 10924 10921
10924 10925 10926 10928 10930 10932 10935 10938 10941 10942 10943 10944 10945 10947 10948 10950 10951 10952 10953 10954 10954 10955 10956 10957 10957 10957 10956 10955 10955 10955 10956 10956 10955 10955 10956 10957 10957 10957 10957 10956 10956 10956 10956 10954 10952 10949 10948 10947 10945 10944 10942 10941 10939 10937 10936 10935 10934 10932 10930 10928 10925 10921 10917
10919 10920 10921 10922 10925 10928 10930 10933 10936 10937 10938 10940 10941 10943 10944 10945 10947 10948 10948 10949 10950 10951 10952 10953 10953 10952 10952 10952 10951 10951 10951 10951 10951 10952 10953 10953 10953 10953 10953 10952 10952 10952 10951 10950 10948 10946 10944 10943 10942 10940 10938 10936 10935 10933 10931 10929 10928 10927 10926 10924 10921 10918 10913
10912 10914 10915 10917 10919 10922 10925 10928 10930 10932 10933 10935 10936 10938 10939 10940 10942 10943 10943 10944 10945 10946 10948 10949 10949 10948 10948 10948 10947 10947 10947 10947 10947 10948 10949 10949 10949 10949 10948 10948 10948 10947 10947 10946 10943 10942 10941 10940 10938 10936 10934 10932 10930 10928 10926 10923 10921 10920 10920 10919 10917 10914 10909
10905 10907 10909 10912 10914 10916 10918 10921 10924 10926 10928 10929 10930 10932 10935 10936 10937 10938 10938 10940 10941 10942 10943 10944 10945 10944 10944 10944 10943 10943 10943 10943 10943 10944 10945 10945 10945 10945 10944 10943 10943 10943 10943 10941 10939 10938 10937 10935 10933 10932 10930 10927 10925 10923 10920 10917 10915 10913 10912 10912 10911 10909 10905
10899 10901 10904 10907 10909 10910 10912 10913 10916 10919 10922 10923 10925 10927 10930 10932 10933 10933 10934 10934 10936 10937 10938 10939 10940 10939 10939 10939 10939 10938 10938 10939 10939 10939 10940 10941 10941 10940 10939 10939 10939 10939 10939 10937 10935 10934 10932 10931 10929 10927 10925 10922 10920 10918 10916 10913 10910 10907 10905 10904 10903 10902 10900
10893 10896 10900 10903 10904 10905 10906 10907 10909 10912 10915 10917 10919 10922 10925 10927 10927 10928 10928 10929 10931 10932 10933 10934 10935 10934 10933 10935 10935 10934 10934 10935 10935 10935 10936 10936 10936 10935 10934 10934 10934 10935 10935 10933 10931 10929 10928 10926 10925 10923 10920 10918 10915 10914 10911 10909 10906 10903 10900 10897 10896 10895 10894
10884 10889 10894 10897 10899 10899 10900 10901 10903 10905 10908 10911 10913 10915 10918 10920 10921 10921 10922 10923 10925 10928 10929 10929 10930 10929 10929 10930 10930 10930 10929 10930 10929 10930 10931 10931 10931 10930 10930 10930 10930 10930 10930 10929 10926 10925 10923 10922 10920 10918 10916 10913 10911 10909 10907 10905 10902 10899 10895 10893 10890 10888 10886
10874 10880 10886 10890 10892 10893 10893 10894 10897 10900 10903 10905 10906 10908 10910 10912 10914 10916 10917 10918 10920 10922 10924 10925 10926 10925 10924 10924 10926 10926 10925 10924 10924 10925 10926 10926 10925 10925 10925 10925 10926 10925 10925 10924 10922 10920 10918 10916 10915 10913 10910 10907 10905 10902 10901 10899 10896 10893 10890 10888 10885 10881 10879
10866 10871 10876 10880 10883 10885 10886 10887 10890 10894 10897 10897 10898 10900 10903 10906 10908 10910 10910 10911 10913 10915 10918 10921 10921 10921 10919 10918 10920 10921 10919 10919 10920 10920 10921 10920 10920 10921 10921 10921 10920 10920 10920 10920 10918 10916 10914 10912 10909 10907 10904 10901 10898 10895 10893 10891 10889 10886 10884 10881 10879 10875 10872
10858 10862 10866 10869 10873 10875 10877 10879 10883 10886 10889 10889 10891 10894 10897 10900 10902 10903 10903 10903 10905 10909 10913 10915 10915 10915 10914 10913 10914 10916 10914 10914 10915 10915 10915 10915 10915 10916 10917 10916 10915 10915 10914 10914 10912 10911 10909 10907 10904 10901 10898 10896 10892 10888 10885 10883 10881 10879 10876 10874 10872 10869 10865
10848 10851 10854 10859 10863 10865 10868 10871 10875 10879 10881 10883 10885 10889 10891 10894 10895 10896 10896 10897 10899 10902 10906 10907 10908 10909 10908 10907 10908 10909 10909 10909 10910 10909 10909 10910 10911 10912 10912 10911 10910 10909 10908 10907 10905 10904 10902 10900 10898 10896 10893 10890 10887 10883 10879 10876 10873 10871 10869 10867 10865 10863 10859
10840 10842 10845 10849 10853 10857 10860 10864 10868 10872 10874 10877 10880 10882 10885 10887 10889 10890 10891 10892 10894 10895 10897 10900 10903 10903 10903 10901 10901 10902 10903 10903 10903 10904 10904 10905 10906 10907 10906 10905 10904 10903 10901 10900 10898 10897 10895 10893 10891 10889 10886 10884 10882 10878 10874 10870 10867 10864 10862 10861 10859 10856 10853
10833 10835 10837 10839 10843 10847 10851 10856 10861 10864 10866 10868 10870 10874 10878 10880 10882 10884 10885 10886 10888 10889 10891 10894 10897 10898 10897 10896 10895 10894 10895 10895 10896 10898 10899 10899 10900 10900 10899 10898 10897 10895 10894 10892 10891 10889 10888 10886 10884 10881 10879 10877 10875 10872 10869 10865 10861 10858 10856 10854 10853 10850 10847
10824 10827 10829 10829 10832 10835 10839 10845 10849 10851 10854 10857 10860 10866 10871 10873 10874 10876 10878 10880 10883 10883 10884 10888 10892 10892 10891 10890 10889 10887 10887 10887 10889 10891 10892 10892 10893 10892 10891 10890 10889 10887 10886 10885 10883 10882 10881 10879 10877 10874 10872 10870 10868 10866 10862 10859 10856 10853 10850 10848 10846 10843 10841
10813 10817 10820 10822 10824 10826 10829 10833 10837 10839 10841 10845 10850 10856 10860 10862 10864 10867 10870 10873 10876 10876 10877 10881 10885 10886 10885 10884 10882 10881 10879 10879 10881 10884 10884 10884 10883 10882 10881 10880 10879 10878 10877 10876 10875 10874 10873 10872 10869 10866 10865 10863 10862 10860 10856 10853 10849 10847 10844 10841 10839 10836 10834
10802 10806 10810 10814 10817 10821 10822 10824 10827 10829 10832 10835 10841 10846 10848 10850 10853 10857 10861 10863 10865 10867 10870 10874 10877 10877 10878 10877 10875 10874 10873 10873 10873 10874 10874 10874 10873 10871 10869 10869 10868 10869 10869 10868 10868 10867 10866 10865 10862 10860 10858 10857 10855 10853 10850 10846 10843 10840 10836 10833 10831 10828 10826
10792 10794 10799 10804 10809 10813 10815 10815 10818 10821 10824 10828 10832 10835 10837 10839 10842 10846 10849 10852 10855 10860 10864 10867 10869 10869 10869 10868 10866 10866 10867 10867 10865 10863 10862 10862 10861 10859 10859 10859 10860 10860 10861 10861 10861 10860 10859 10858 10856 10853 10851 10850 10848 10846 10843 10839 10836 10833 10829 10825 10822 10820 10817
10785 10785 10787 10792 10798 10802 10805 10806 10809 10813 10816 10819 10822 10823 10825 10828 10831 10834 10837 10840 10846 10855 10860 10860 10860 10859 10859 10858 10858 10858 10859 10858 10857 10853 10850 10849 10848 10848 10850 10851 10852 10852 10853 10855 10855 10853 10852 10850 10849 10847 10844 10842 10841 10839 10835 10832 10829 10827 10823 10818 10815 10812 10809
10781 10780 10779 10782 10786 10791 10796 10798 10801 10805 10808 10809 10810 10811 10813 10816 10820 10824 10826 10829 10837 10848 10853 10852 10850 10849 10848 10849 10850 10851 10849 10848 10846 10844 10841 10840 10838 10838 10839 10842 10845 10847 10849 10849 10848 10846 10845 10843 10841 10838 10835 10834 10834 10832 10828 10824 10822 10820 10816 10811 10807 10804 10800
10773 10774 10774 10775 10777 10780 10785 10789 10792 10796 10799 10799 10800 10801 10804 10807 10811 10815 10819 10822 10829 10836 10840 10841 10841 10839 10839 10840 10842 10841 10839 10837 10836 10835 10835 10834 10831 10828 10829 10833 10838 10843 10844 10843 10840 10838 10836 10834 10832 10830 10826 10825 10826 10824 10819 10817 10815 10812 10808 10804 10801 10797 10793
10764 10766 10767 10769 10769 10771 10774 10778 10781 10785 10788 10790 10793 10795 10797 10801 10804 10808 10812 10816 10818 10821 10825 10829 10831 10830 10831 10832 10832 10830 10829 10829 10829 10828 10828 10828 10826 10823 10822 10826 10832 10837 10837 10834 10830 10827 10825 10824 10823 10820 10818 10817 10818 10815 10811 10809 10807 10803 10800 10797 10795 10791 10787
10758 10757 10758 10760 10762 10764 10765 10767 10770 10774 10777 10781 10785 10787 10790 10792 10795 10798 10802 10805 10806 10808 10813 10817 10819 10820 10822 10823 10822 10822 10823 10823 10823 10822 10820 10820 10820 10820 10819 10821 10827 10829 10826 10822 10819 10815 10814 10814 10813 10811 10810 10810 10810 10807 10803 10801 10798 10795 10792 10789 10787 10784 10780
10750 10751 10752 10753 10755 10757 10758 10760 10762 10764 10767 10772 10776 10778 10779 10782 10784 10787 10790 10792 10792 10794 10799 10802 10805 10807 10809 10811 10814 10816 10817 10818 10817 10816 10815 10815 10816 10815 10815 10818 10822 10820 10816 10813 10808 10804 10802 10803 10804 10804 10804 10803 10802 10798 10796 10794 10791 10788 10786 10784 10780 10777 10774
10743 10744 10746 10747 10749 10751 10752 10754 10755 10757 10759 10763 10766 10768 10769 10771 10773 10775 10778 10780 10780 10781 10784 10788 10791 10794 10797 10801 10805 10807 10809 10810 10810 10811 10810 10809 10809 10809 10810 10814 10815 10812 10811 10810 10805 10800 10797 10797 10798 10800 10798 10796 10794 10791 10788 10786 10783 10782 10781 10779 10775 10772 10769
10736 10738 10740 10742 10744 10746 10747 10749 10750 10751 10752 10754 10756 10758 10760 10761 10762 10763 10766 10768 10769 10771 10773 10776 10779 10783 10786 10791 10793 10796 10799 10802 10803 10803 10802 10801 10803 10804 10805 10810 10811 10807 10805 10805 10802 10800 10799 10795 10794 10794 10791 10788 10786 10783 10780 10778 10776 10774 10773 10772 10769 10766 10764
10729 10732 10734 10737 10739 10740 10742 10744 10745 10745 10746 10747 10748 10750 10751 10752 10752 10753 10754 10756 10758 10760 10763 10767 10771 10775 10779 10783 10785 10786 10790 10793 10795 10796 10795 10795 10798 10799 10798 10802 10805 10801 10797 10796 10796 10797 10795 10791 10789 10787 10783 10780 10779 10776 10773 10771 10770 10768 10767 10765 10763 10761 10758
10722 10725 10728 10731 10733 10734 10736 10737 10738 10740 10741 10741 10742 10743 10743 10745 10746 10745 10745 10747 10748 10751 10756 10762 10767 10770 10773 10778 10779 10779 10781 10784 10788 10792 10792 10791 10793 10792 10789 10789 10792 10792 10791 10790 10790 10789 10787 10784 10781 10778 10775 10773 10771 10769 10768 10767 10764 10762 10761 10759 10757 10754 10751
10715 10718 10721 10724 10727 10728 10729 10730 10732 10734 10736 10736 10737 10737 10738 10739 10740 10740 10741 10741 10741 10745 10751 10758 10764 10766 10768 10771 10773 10774 10777 10780 10784 10790 10790 10785 10784 10784 10780 10778 10780 10782 10783 10783 10782 10780 10778 10776 10774 10771 10769 10766 10764 10763 10763 10762 10759 10756 10754 10752 10749 10747 10744
10707 10711 10714 10718 10720 10720 10722 10725 10727 10728 10730 10731 10731 10732 10732 10733 10733 10735 10737 10737 10737 10740 10747 10753 10757 10760 10763 10767 10768 10771 10775 10779 10784 10792 10792 10785 10780 10778 10773 10770 10772 10774 10775 10776 10775 10774 10773 10771 10769 10766 10763 10760 10758 10757 10757 10756 10753 10750 10747 10745 10742 10739 10736